ZHUHAI-1 01 (CAS-4A) (42761 NORAD) Tracking and Keplerian Element Data

This shows tracking and keplerian element data for the satellite.

Feedback or suggestion? Click here.




ElementValue
Catalog42761
NameZHUHAI-1 01 (CAS-4A)
Epoch Orbit23530
Epoch Day262.07566465
Epoch Year2021
RAAN25.31
Inclination43.0187
Eccentricity0.0007957
Argument of Perigee22.4087
Mean Anonmoly146.3764
Mean Motion15.10459374
Decay Rate8.67E-06
L11 42761U 17034D 21262.07566465 .00000867 00000-0 65005-4 0 9998
L22 42761 43.0187 25.3100 0007957 22.4087 146.3764 15.10459374235300

Live tracking and technical data element details for ZHUHAI-1 01 (CAS-4A) (NORAD 42761). ZHUHAI-1 01 (CAS-4A) can be tracked NOW for your location showing map with azimuth and elevation plus other details from your city location.

Track the satellite on the map from your city or location and see movement details for azimuth, elevation, latitude, longitude, range, height, and movement on the map or in text.







IsCatalogInMostPopularTable: catalog: 42761, numindb: 590
Update: records affected: 1



GetName: 42761 ZHUHAI-1 01 (CAS-4A)

Hit Count: updated at: Sun, 26 Sep 2021 01:20:38 GMT